Weather History for Joliet, IL

Change the Weather History Date:

Monday, February 18, 2013

  Actual Average (KLOT) Record (KLOT)
Temperature  
Mean Temperature 40 °F 29 °F  
Max Temperature 52 °F 36 °F 58 °F (1994)
Min Temperature 27 °F 21 °F -7 °F (2006)
Degree Days  
Heating Degree Days 26 37  
Month to date heating degree days 703  
Since 1 July heating degree days 4384  
Cooling Degree Days 0 0  
Month to date cooling degree days 0  
Year to date cooling degree days 0  
Moisture  
Dew Point 32 °F    
Average Humidity 73    
Maximum Humidity 94    
Minimum Humidity 56    
Precipitation  
Precipitation 0.21 in 0.06 in 0.60 in (2009)
Month to date precipitation 1.03  
Year to date precipitation 2.96  
Snow  
Snow 0.00 in 0.20 in 5.00 in (2000)
Month to date snowfall 4.3  
Since 1 July snowfall 25.3  
Snow Depth -    
Sea Level Pressure  
Sea Level Pressure 29.68 in    
Wind  
Wind Speed 12 mph (South)    
Max Wind Speed 25 mph    
Max Gust Speed 36 mph    
Visibility 9 miles    
Events Rain , Snow    
T = Trace of Precipitation, MM = Missing Value Source: NWS Daily Summary

Daily Weather History Graph

Daily Weather History Graph

Search for Another Location

Airport:

Trip Planner

Search our weather history database for the weather conditions in past years. The results will help you decide how hot, cold, wet, or windy it might be!

Date:

Astronomy

Feb. 18, 2013 Rise Set
Actual Time 6:43 AM CST 5:30 PM CST
Civil Twilight 6:15 AM CST 5:58 PM CST
Nautical Twilight 5:42 AM CST 6:31 PM CST
Astronomical Twilight 5:10 AM CST 7:03 PM CST
Moon 11:14 AM CST (2/18) 1:24 AM CST (2/18)
Length of Visible Light 11h 43m
Length of Day
10h 47m
First Quarter, 58% of the Moon is Illuminated
Feb 18
First Quarter
Feb 25
Full
Mar 4
Last Quarter
Mar 11
New
Mar 19
First Quarter

Hourly Weather History & Observations

Time (CST) Temp. Windchill Dew Point Humidity Pressure Visibility Wind Dir Wind Speed Gust Speed Precip Events Conditions
12:15 AM 27.3 °F 18.4 °F 18.5 °F 69% 29.98 in 10.0 mi SE 9.2 mph - N/A   Clear
12:35 AM 27.1 °F 18.9 °F 18.9 °F 71% 29.98 in 10.0 mi SE 8.1 mph - N/A   Clear
12:55 AM 27.5 °F 19.3 °F 19.0 °F 71% 29.97 in 10.0 mi SE 8.1 mph - N/A   Clear
1:15 AM 27.7 °F 18.8 °F 19.0 °F 70% 29.96 in 10.0 mi SSE 9.2 mph - N/A   Clear
1:35 AM 28.2 °F 20.2 °F 18.9 °F 68% 29.95 in 10.0 mi SE 8.1 mph - N/A   Clear
1:55 AM 28.4 °F 20.4 °F 18.9 °F 67% 29.94 in 10.0 mi SE 8.1 mph - N/A   Clear
2:15 AM 28.8 °F 20.2 °F 18.7 °F 66% 29.92 in 10.0 mi SSE 9.2 mph - N/A   Clear
2:35 AM 30.0 °F 21.7 °F 18.5 °F 62% 29.91 in 10.0 mi SE 9.2 mph - N/A   Clear
2:55 AM 30.0 °F 21.7 °F 18.5 °F 62% 29.90 in 10.0 mi SSE 9.2 mph - N/A   Clear
3:15 AM 30.4 °F 22.2 °F 18.7 °F 62% 29.89 in 10.0 mi SSE 9.2 mph - N/A   Clear
3:35 AM 31.5 °F 23.5 °F 18.5 °F 59% 29.87 in 10.0 mi SSE 9.2 mph - N/A   Clear
3:55 AM 31.1 °F 22.4 °F 18.7 °F 60% 29.86 in 10.0 mi SSE 10.4 mph - N/A   Clear
4:15 AM 31.6 °F 23.1 °F 18.9 °F 59% 29.86 in 10.0 mi SSE 10.4 mph - N/A   Clear
4:35 AM 32.0 °F 24.2 °F 19.0 °F 59% 29.85 in 10.0 mi SSE 9.2 mph - N/A   Clear
4:55 AM 32.0 °F 23.0 °F 19.4 °F 60% 29.84 in 10.0 mi SSE 11.5 mph - N/A   Clear
5:15 AM 32.0 °F 23.6 °F 19.6 °F 60% 29.83 in 10.0 mi SSE 10.4 mph - N/A   Clear
5:35 AM 32.0 °F 24.2 °F 20.1 °F 62% 29.82 in 10.0 mi SSE 9.2 mph - N/A   Clear
5:55 AM 32.0 °F 23.0 °F 21.2 °F 64% 29.81 in 10.0 mi SSE 11.5 mph 17.3 mph N/A   Clear
6:15 AM 32.0 °F 23.6 °F 21.2 °F 64% 29.81 in 10.0 mi SSE 10.4 mph 20.7 mph N/A   Clear
6:35 AM 32.0 °F 23.0 °F 21.2 °F 64% 29.80 in 10.0 mi SSE 11.5 mph - N/A   Clear
6:55 AM 32.0 °F 22.1 °F 23.0 °F 69% 29.79 in 10.0 mi SSE 13.8 mph 21.9 mph N/A   Clear
7:15 AM 33.1 °F 24.4 °F 23.5 °F 68% 29.78 in 10.0 mi SSE 11.5 mph 17.3 mph N/A   Clear
7:35 AM 34.5 °F 25.7 °F 24.4 °F 67% 29.78 in 10.0 mi South 12.7 mph 19.6 mph N/A   Clear
7:55 AM 36.1 °F 28.2 °F 25.3 °F 65% 29.77 in 10.0 mi SSE 11.5 mph 19.6 mph N/A   Clear
8:15 AM 37.4 °F 30.3 °F 26.6 °F 65% 29.77 in 10.0 mi South 10.4 mph 18.4 mph N/A   Clear
8:35 AM 38.3 °F 31.9 °F 27.3 °F 65% 29.76 in 10.0 mi South 9.2 mph 17.3 mph N/A   Clear
8:55 AM 39.9 °F 33.4 °F 28.4 °F 63% 29.76 in 10.0 mi South 10.4 mph 16.1 mph N/A   Clear
9:15 AM 42.3 °F 34.8 °F 30.4 °F 63% 29.74 in 10.0 mi South 15.0 mph - N/A   Clear
9:35 AM 44.8 °F 37.7 °F 32.0 °F 61% 29.73 in 10.0 mi South 16.1 mph 23.0 mph N/A   Clear
9:55 AM 46.8 °F - 33.1 °F 59% 29.73 in 10.0 mi SSW 10.4 mph 21.9 mph N/A   Clear
10:15 AM 47.7 °F - 33.8 °F 59% 29.73 in 10.0 mi SSW 16.1 mph 21.9 mph N/A   Clear
10:35 AM 48.6 °F - 34.7 °F 59% 29.72 in 10.0 mi South 18.4 mph 24.2 mph N/A   Clear
10:55 AM 50.2 °F - 35.6 °F 57% 29.71 in 10.0 mi South 15.0 mph 23.0 mph N/A   Clear
11:15 AM 51.6 °F - 36.5 °F 56% 29.70 in 10.0 mi South 18.4 mph 27.6 mph N/A   Clear
11:35 AM 51.8 °F - 36.9 °F 57% 29.69 in 10.0 mi South 18.4 mph 27.6 mph N/A   Clear
11:55 AM 51.3 °F - 37.4 °F 59% 29.68 in 10.0 mi SSW 12.7 mph 26.5 mph N/A   Clear
12:15 PM 52.5 °F - 38.7 °F 59% 29.66 in 10.0 mi South 17.3 mph 24.2 mph N/A   Mostly Cloudy
12:35 PM 51.8 °F - 39.2 °F 62% 29.65 in 10.0 mi SSW 17.3 mph 29.9 mph N/A   Mostly Cloudy
12:55 PM 51.3 °F - 39.7 °F 65% 29.65 in 10.0 mi SSW 18.4 mph 27.6 mph N/A   Overcast
1:15 PM 51.1 °F - 40.3 °F 67% 29.64 in 10.0 mi SSW 11.5 mph 25.3 mph N/A   Overcast
1:35 PM 51.3 °F - 41.0 °F 68% 29.62 in 10.0 mi South 16.1 mph 23.0 mph N/A   Overcast
1:55 PM 51.3 °F - 41.5 °F 69% 29.61 in 10.0 mi South 11.5 mph 21.9 mph N/A   Overcast
2:15 PM 51.6 °F - 42.3 °F 70% 29.60 in 10.0 mi SSW 13.8 mph 21.9 mph N/A   Overcast
2:35 PM 51.8 °F - 42.8 °F 71% 29.59 in 10.0 mi SSW 11.5 mph 20.7 mph N/A   Overcast
2:55 PM 51.8 °F - 43.3 °F 73% 29.58 in 10.0 mi South 15.0 mph 25.3 mph N/A   Overcast
3:15 PM 52.2 °F - 43.7 °F 73% 29.58 in 10.0 mi SSW 9.2 mph 21.9 mph N/A   Overcast
3:35 PM 50.2 °F - 43.3 °F 77% 29.57 in 10.0 mi South 13.8 mph 18.4 mph N/A   Overcast
3:55 PM 49.5 °F - 43.3 °F 79% 29.56 in 10.0 mi South 13.8 mph 20.7 mph N/A   Overcast
4:15 PM 50.0 °F - 43.3 °F 78% 29.54 in 10.0 mi South 13.8 mph 25.3 mph N/A   Overcast
4:35 PM 49.8 °F - 43.7 °F 79% 29.53 in 10.0 mi South 20.7 mph 28.8 mph N/A   Overcast
4:55 PM 49.1 °F - 43.5 °F 81% 29.52 in 10.0 mi South 18.4 mph 24.2 mph N/A   Overcast
5:15 PM 49.1 °F - 43.7 °F 82% 29.52 in 10.0 mi South 20.7 mph 28.8 mph N/A   Overcast
5:35 PM 48.6 °F - 43.9 °F 84% 29.50 in 10.0 mi South 21.9 mph 33.4 mph N/A   Overcast
5:55 PM 48.6 °F - 44.1 °F 84% 29.49 in 10.0 mi South 25.3 mph 35.7 mph N/A   Overcast
6:15 PM 48.2 °F - 44.1 °F 86% 29.48 in 10.0 mi South 20.7 mph 32.2 mph N/A Rain Light Rain
6:35 PM 48.2 °F - 44.6 °F 87% 29.48 in 10.0 mi South 18.4 mph 34.5 mph N/A Rain Rain
6:55 PM 46.6 °F - 44.6 °F 93% 29.47 in 4.0 mi South 20.7 mph 33.4 mph 0.01 in Rain Rain
7:15 PM 46.0 °F 38.8 °F 44.2 °F 93% 29.46 in 5.0 mi South 18.4 mph 31.1 mph 0.03 in Rain Rain
7:35 PM 45.7 °F 37.8 °F 44.1 °F 94% 29.44 in 5.0 mi South 20.7 mph 27.6 mph 0.07 in Rain Rain
7:55 PM 45.7 °F 38.0 °F 43.9 °F 93% 29.43 in 5.0 mi South 19.6 mph 31.1 mph 0.10 in Rain Light Rain
8:15 PM 45.5 °F 39.2 °F 43.7 °F 93% 29.44 in 5.0 mi SW 13.8 mph 28.8 mph 0.03 in Rain Heavy Rain
8:35 PM 40.1 °F 34.1 °F 38.1 °F 93% 29.46 in 5.0 mi WNW 9.2 mph 21.9 mph 0.09 in Rain Light Rain
8:55 PM 38.5 °F 31.6 °F 36.9 °F 94% 29.48 in 7.0 mi West 10.4 mph - 0.10 in   Drizzle
9:15 PM 37.8 °F 28.0 °F 36.1 °F 94% 29.49 in 5.0 mi West 18.4 mph 27.6 mph N/A   Drizzle
9:35 PM 35.2 °F 26.2 °F 33.1 °F 92% 29.51 in 5.0 mi West 13.8 mph 20.7 mph N/A Rain Light Rain
9:55 PM 33.8 °F 23.9 °F 32.2 °F 94% 29.51 in 5.0 mi West 15.0 mph 21.9 mph N/A Rain Light Rain
10:15 PM 33.3 °F 23.2 °F 31.8 °F 94% 29.54 in 10.0 mi West 15.0 mph 26.5 mph N/A Rain Light Rain
10:35 PM 32.9 °F 23.7 °F 30.9 °F 92% 29.55 in 10.0 mi West 12.7 mph 26.5 mph N/A   Overcast
10:55 PM 31.6 °F 19.7 °F 28.8 °F 89% 29.57 in 10.0 mi West 19.6 mph 28.8 mph N/A   Overcast
11:15 PM 30.2 °F 17.4 °F 27.3 °F 89% 29.59 in 2.5 mi West 20.7 mph 31.1 mph N/A Snow Light Snow
11:35 PM 29.1 °F 16.0 °F 25.7 °F 87% 29.60 in 7.0 mi West 20.7 mph 28.8 mph N/A Snow Light Snow
11:55 PM 27.9 °F 14.7 °F 23.9 °F 85% 29.61 in 10.0 mi West 19.6 mph 28.8 mph N/A   Overcast